Find STARLINK-37475

NORAD ID: 68839 Int'l Des: 2026-094A Owner: starlink Country: USA Constellation: starlink operational
LEOCIRCULARRETROGRADE

实时位置

正在加载3D地球...

关于 STARLINK-37475

正在加载描述...

即将过境

Passes for default location (London). Set your location on the main map for personalized predictions.

高度历史

Loading altitude history...

两行轨道根数

1 68839U 26094A 26121.83336806 -.01794452 98131-3 -33814-2 0 9994
2 68839 97.2830 135.4335 0001394 62.9295 31.0380 16.00976271 1914
Epoch: May 1, 2026 • Age: 5 hours

当前状态

高度 279.4 km
速度 7.74 km/s
星下点 40.96°N, 91.7°E
类型 internet

Most Searched